Lid_Strength_Index
-1 0 1 3 9 9 11 10 8 8 8 7 7 8 8 7 7 11 3 1 1 0 -1 -1 -1 -1 -1 -1 -1 -1 -1 -1 -1 -1 -1 -1 -2 -1 -2 -2 -2 -2 -2 -2 -2 -1 -2 -2 -2
2 1 2 5 10 12 11 9 8 7 7 7 7 8 8 8 4 4 3 1 0 0 -0 -1 -0 -1 -1 -2 -1 -1 -1 -1 -1 -1 -1 -1 -1 -2 -2 -2 -2 -2 -2 -2 -2 -1 -1 -2 -2
1 2 5 8 10 12 11 9 8 7 7 8 9 7 7 6 4 3 2 1 0 0 -0 -0 -0 -1 -2 -2 -2 -2 -2 -2 -2 -2 -1 -1 -2 -2 -2 -2 -2 -2 -2 -2 -2 -1 -1 -1 -2
3 3 5 9 11 10 9 8 7 7 7 7 8 8 6 3 3 2 1 1 1 1 -0 -0 -1 -1 -2 -2 -2 -2 -2 -2 -2 -2 -1 -1 -2 -2 -2 -2 -2 -2 -2 -2 -2 -1 -1 -1 -2
3 5 9 10 10 10 8 7 8 8 8 7 8 9 7 4 2 1 1 1 1 1 -0 -1 -1 -1 -1 -2 -2 -2 -2 -2 -2 -1 -1 -2 -1 -2 -2 -2 -2 -2 -2 -2 -2 -1 -1 -1 -2
6 6 10 11 10 9 8 8 8 8 8 8 9 8 7 4 3 2 1 1 1 1 0 -0 1 1 -0 -1 -1 -2 -2 -1 -2 -2 -2 -2 -2 -2 -2 -2 -2 -2 -2 -2 -2 -1 -0 -1 -1
7 8 10 10 10 9 8 8 9 9 9 8 7 9 8 7 4 2 2 1 1 0 0 0 -0 0 2 1 1 -1 -1 -1 -1 -2 -2 -2 -2 -2 -2 -2 -2 -2 -2 -2 -2 -1 1 1 1
6 8 11 11 11 10 8 8 7 8 9 7 7 9 10 9 6 2 3 4 5 6 5 2 1 1 0 -0 2 1 0 -0 -0 -1 -0 -0 -1 -1 -1 -1 -2 -2 -2 -2 -2 -0 2 3 3
6 10 11 11 11 10 8 9 8 8 9 8 7 8 8 7 5 4 4 4 4 4 4 5 5 1 0 0 1 1 1 1 1 1 1 2 -0 0 0 0 -1 -2 -2 -2 -2 -1 1 3 2
8 10 10 9 9 9 8 8 8 9 9 9 9 8 7 6 7 6 7 7 7 6 6 5 5 5 2 0 0 -0 -0 -0 -0 -0 0 -0 -0 -0 0 1 -0 -1 -2 -2 -1 -1 -0 0 4
8 10 9 9 7 7 8 9 8 10 10 10 9 8 8 7 7 7 8 8 8 7 5 4 4 4 5 0 0 -0 -0 0 0 0 0 0 1 1 1 1 1 1 1 -0 -1 0 1 2 3
10 8 8 7 7 8 9 8 9 9 10 8 9 8 8 8 8 8 8 8 8 7 5 4 4 4 4 1 -0 1 1 1 1 1 1 0 0 0 1 1 1 1 1 2 1 1 1 2 3
9 8 8 7 8 8 7 9 9 9 9 9 8 8 9 9 9 9 9 8 7 6 5 5 4 3 4 2 -0 1 1 1 1 1 1 1 1 1 0 1 1 2 2 2 3 2 3 3 2
8 8 8 8 7 8 9 9 9 9 9 9 9 10 10 10 11 10 9 9 7 6 6 5 3 2 3 1 2 2 3 3 3 2 1 1 1 1 1 2 2 2 2 3 4 4 4 5 4
8 10 8 8 8 9 9 11 10 9 9 10 10 11 10 10 11 11 10 9 7 7 6 4 3 3 3 4 4 4 4 4 4 3 3 2 3 3 3 4 4 4 3 4 4 5 5 5 5
10 10 12 9 8 10 10 13 9 9 10 11 11 11 11 11 11 11 10 9 9 9 7 5 5 6 6 5 5 6 6 5 4 4 4 3 3 3 4 5 5 5 4 4 5 5 5 5 6
11 14 12 11 9 10 11 12 11 10 10 11 11 11 11 12 11 11 11 9 9 9 7 6 7 7 7 8 8 7 7 6 5 6 5 5 5 5 5 6 6 6 6 6 5 7 7 7 8
13 13 11 12 10 10 12 12 11 11 11 12 11 11 12 12 12 12 11 9 10 8 8 7 7 8 8 9 8 8 8 8 8 8 8 7 6 6 6 7 7 7 7 8 8 7 7 8 9
10 11 12 10 10 12 12 12 10 11 12 12 12 12 12 12 12 12 11 10 9 8 8 7 7 7 7 8 9 9 10 10 11 11 10 10 9 8 9 9 8 9 10 10 9 8 8 9 9
11 12 13 11 11 12 12 13 11 11 12 11 11 12 13 13 13 12 11 10 9 9 8 8 7 7 7 7 9 10 11 12 12 12 12 12 11 11 11 12 12 12 12 12 12 12 10 10 11
12 13 13 13 12 12 14 15 13 11 11 11 11 11 12 13 14 13 12 11 10 10 9 8 8 7 8 9 10 11 12 13 13 14 14 13 12 12 12 12 12 13 13 13 13 13 14 14 13
14 11 12 13 14 17 14 18 14 12 12 12 12 13 13 14 13 13 12 12 10 10 9 9 9 9 9 10 11 12 13 15 14 14 14 13 13 13 13 13 13 13 13 14 14 13 14 14 15
13 12 13 13 15 16 16 17 15 12 12 14 13 13 14 14 13 14 13 13 13 11 11 11 11 11 11 11 12 13 14 14 14 14 14 14 14 14 14 14 14 14 14 15 15 15 15 14 15
11 13 14 15 15 19 15 15 16 13 12 13 13 13 13 14 14 14 14 14 14 13 13 13 13 13 12 12 13 14 14 14 14 15 15 15 15 15 15 14 15 15 15 15 15 15 15 15 15
12 15 19 20 20 20 15 16 14 12 13 12 13 13 13 13 14 15 15 15 14 14 14 14 14 14 13 13 13 14 14 14 15 15 15 16 16 16 16 16 16 16 15 15 15 15 16 15 16
14 14 18 22 21 19 19 20 16 15 14 13 12 12 13 14 14 15 15 15 14 14 14 14 14 15 14 14 14 14 14 14 14 15 15 16 16 16 16 16 16 16 15 15 15 15 15 15 16
14 16 12 16 21 21 18 16 14 15 15 15 13 13 13 14 14 15 15 15 15 15 15 15 15 15 15 15 15 15 15 15 15 15 16 16 16 15 16 16 16 16 16 15 15 16 16 16 16
13 12 17 16 21 22 19 18 17 17 16 15 14 14 13 13 14 14 14 15 15 15 15 15 15 15 15 15 15 15 15 15 15 16 16 17 16 16 16 16 16 16 16 16 16 17 16 17 17
15 16 15 13 16 20 21 18 14 12 14 15 14 13 13 14 14 14 15 15 15 15 16 16 16 15 15 15 15 15 15 15 15 16 16 17 17 17 17 16 16 16 17 17 17 17 17 17 17
12 13 13 16 18 16 17 16 14 14 13 13 13 13 13 13 14 14 14 15 16 16 16 16 16 16 16 15 15 15 15 16 16 16 16 17 17 17 17 17 17 17 17 17 17 17 17 17 16